ZKDAY YBMA-YCNY

Flight info

Callsign ZKDAY
Flight time 1h 12m
Altitude 4000
Route MA W879 KAKTU DCT CNYNA/N0113F030
Aircraft C172/L-SFG/C

Departure

Time 2026-04-16 13:25
Airport Mount Isa Airport (YBMA)

Arrival

Time 2026-04-16 14:38
Airport Century Mine Airport (YCNY)
Time Latitude Longitude Altitude Speed Heading
2026-04-16 13:18 -20.66510 139.49033 1103 ft 0 kts 200°
2026-04-16 13:22 -20.66515 139.49033 1103 ft 4 kts 161°
2026-04-16 13:23 -20.66492 139.49031 1103 ft 4 kts 302°
2026-04-16 13:23 -20.66492 139.49008 1103 ft 2 kts 259°
2026-04-16 13:23 -20.66495 139.48988 1103 ft 9 kts 262°
2026-04-16 13:23 -20.66508 139.48912 1104 ft 11 kts 256°
2026-04-16 13:24 -20.66535 139.48836 1105 ft 13 kts 197°
2026-04-16 13:24 -20.66725 139.48875 1104 ft 49 kts 168°
2026-04-16 13:24 -20.67154 139.48986 1180 ft 69 kts 166°
2026-04-16 13:24 -20.67583 139.49109 1363 ft 65 kts 168°
2026-04-16 13:25 -20.68074 139.49203 1443 ft 79 kts 174°
2026-04-16 13:25 -20.68646 139.49243 1594 ft 87 kts 182°
2026-04-16 13:25 -20.69273 139.49216 1760 ft 90 kts 184°
2026-04-16 13:25 -20.69875 139.48968 1894 ft 98 kts 220°
2026-04-16 13:26 -20.70132 139.48299 1991 ft 108 kts 277°
2026-04-16 13:26 -20.69663 139.47663 1998 ft 120 kts 335°
2026-04-16 13:26 -20.68904 139.47319 2118 ft 117 kts 340°
2026-04-16 13:26 -20.68151 139.47014 2236 ft 115 kts 342°
2026-04-16 13:27 -20.67397 139.46721 2347 ft 114 kts 343°
2026-04-16 13:27 -20.66688 139.46440 2547 ft 106 kts 342°
2026-04-16 13:27 -20.66017 139.46168 2738 ft 101 kts 342°
2026-04-16 13:27 -20.65375 139.45908 2926 ft 97 kts 342°
2026-04-16 13:28 -20.64745 139.45655 3088 ft 96 kts 342°
2026-04-16 13:28 -20.64122 139.45405 3261 ft 95 kts 341°
2026-04-16 13:28 -20.63504 139.45157 3434 ft 94 kts 341°
2026-04-16 13:28 -20.62895 139.44912 3594 ft 94 kts 341°
2026-04-16 13:29 -20.62281 139.44665 3738 ft 95 kts 341°
2026-04-16 13:29 -20.61662 139.44417 3883 ft 96 kts 341°
2026-04-16 13:29 -20.61029 139.44164 3979 ft 102 kts 341°
2026-04-16 13:29 -20.60335 139.43892 3993 ft 108 kts 341°
2026-04-16 13:30 -20.59626 139.43609 3993 ft 110 kts 341°
2026-04-16 13:30 -20.58942 139.43334 3995 ft 111 kts 341°
2026-04-16 13:30 -20.58217 139.43043 3996 ft 112 kts 341°
2026-04-16 13:30 -20.57488 139.42750 3997 ft 112 kts 341°
2026-04-16 13:31 -20.56758 139.42455 3997 ft 112 kts 341°
2026-04-16 13:31 -20.56026 139.42160 3995 ft 112 kts 341°
2026-04-16 13:31 -20.55294 139.41865 3995 ft 112 kts 341°
2026-04-16 13:31 -20.54561 139.41570 3996 ft 113 kts 341°
2026-04-16 13:32 -20.53827 139.41275 3997 ft 113 kts 341°
2026-04-16 13:32 -20.53095 139.40980 3996 ft 113 kts 341°
2026-04-16 13:32 -20.52361 139.40685 3995 ft 113 kts 341°
2026-04-16 13:32 -20.51627 139.40389 3993 ft 113 kts 341°
2026-04-16 13:33 -20.50894 139.40095 3991 ft 113 kts 341°
2026-04-16 13:33 -20.50163 139.39800 3989 ft 112 kts 341°
2026-04-16 13:33 -20.49433 139.39507 3990 ft 112 kts 341°
2026-04-16 13:33 -20.48703 139.39213 3990 ft 112 kts 341°
2026-04-16 13:34 -20.47972 139.38919 3990 ft 112 kts 341°
2026-04-16 13:34 -20.47241 139.38626 3990 ft 113 kts 341°
2026-04-16 13:34 -20.46508 139.38331 3990 ft 113 kts 341°
2026-04-16 13:34 -20.45773 139.38035 3989 ft 113 kts 341°
2026-04-16 13:35 -20.45037 139.37740 3987 ft 113 kts 341°
2026-04-16 13:35 -20.44303 139.37445 3984 ft 113 kts 341°
2026-04-16 13:35 -20.43571 139.37150 3981 ft 112 kts 341°
2026-04-16 13:35 -20.42839 139.36856 3982 ft 112 kts 341°
2026-04-16 13:36 -20.42108 139.36562 3986 ft 112 kts 341°
2026-04-16 13:36 -20.41377 139.36269 3985 ft 112 kts 341°
2026-04-16 13:36 -20.40645 139.35975 3984 ft 113 kts 341°
2026-04-16 13:36 -20.39910 139.35680 3983 ft 113 kts 341°
2026-04-16 13:37 -20.39176 139.35385 3979 ft 113 kts 341°
2026-04-16 13:37 -20.38441 139.35090 3972 ft 113 kts 341°
2026-04-16 13:37 -20.37707 139.34795 3973 ft 112 kts 341°
2026-04-16 13:37 -20.36976 139.34501 3973 ft 112 kts 341°
2026-04-16 13:38 -20.36244 139.34207 3971 ft 112 kts 341°
2026-04-16 13:38 -20.35514 139.33914 3972 ft 112 kts 341°
2026-04-16 13:38 -20.34783 139.33620 3974 ft 112 kts 341°
2026-04-16 13:38 -20.34051 139.33327 3974 ft 113 kts 341°
2026-04-16 13:39 -20.33318 139.33033 3976 ft 113 kts 341°
2026-04-16 13:39 -20.32584 139.32738 3975 ft 113 kts 341°
2026-04-16 13:39 -20.31850 139.32444 3976 ft 113 kts 341°
2026-04-16 13:39 -20.31116 139.32150 3975 ft 113 kts 341°
2026-04-16 13:40 -20.30382 139.31855 3976 ft 113 kts 341°
2026-04-16 13:40 -20.29650 139.31561 3974 ft 112 kts 341°
2026-04-16 13:40 -20.28919 139.31268 3976 ft 112 kts 341°
2026-04-16 13:40 -20.28186 139.30973 3976 ft 113 kts 341°
2026-04-16 13:41 -20.27454 139.30680 3974 ft 112 kts 341°
2026-04-16 13:41 -20.26722 139.30386 3977 ft 112 kts 341°
2026-04-16 13:41 -20.25988 139.30093 3977 ft 113 kts 341°
2026-04-16 13:41 -20.25254 139.29799 3976 ft 113 kts 341°
2026-04-16 13:42 -20.24521 139.29504 3973 ft 113 kts 342°
2026-04-16 13:42 -20.23797 139.29215 3972 ft 113 kts 341°
2026-04-16 13:42 -20.23055 139.28917 3974 ft 113 kts 342°
2026-04-16 13:42 -20.22569 139.28723 3972 ft 113 kts 342°
2026-04-16 13:43 -20.21838 139.28430 3972 ft 112 kts 341°
2026-04-16 13:43 -20.21109 139.28138 3973 ft 112 kts 341°
2026-04-16 13:43 -20.20145 139.27751 3973 ft 112 kts 342°
2026-04-16 13:43 -20.19654 139.27555 3972 ft 112 kts 342°
2026-04-16 13:44 -20.18926 139.27267 3976 ft 112 kts 342°
2026-04-16 13:44 -20.18196 139.26979 3979 ft 112 kts 342°
2026-04-16 13:44 -20.17464 139.26689 3976 ft 112 kts 342°
2026-04-16 13:44 -20.16733 139.26399 3974 ft 112 kts 342°
2026-04-16 13:45 -20.16004 139.26108 3972 ft 112 kts 341°
2026-04-16 13:45 -20.15273 139.25817 3970 ft 112 kts 342°
2026-04-16 13:45 -20.14544 139.25525 3972 ft 112 kts 342°
2026-04-16 13:45 -20.13811 139.25232 3971 ft 112 kts 341°
2026-04-16 13:46 -20.13080 139.24939 3972 ft 113 kts 342°
2026-04-16 13:46 -20.12346 139.24645 3971 ft 113 kts 341°
2026-04-16 13:46 -20.11613 139.24352 3970 ft 113 kts 342°
2026-04-16 13:46 -20.10879 139.24059 3970 ft 113 kts 341°
2026-04-16 13:47 -20.10145 139.23765 3970 ft 113 kts 341°
2026-04-16 13:47 -20.09411 139.23471 3973 ft 113 kts 341°
2026-04-16 13:47 -20.08676 139.23178 3970 ft 113 kts 342°
2026-04-16 13:47 -20.07942 139.22884 3968 ft 112 kts 342°
2026-04-16 13:48 -20.07212 139.22591 3971 ft 112 kts 342°
2026-04-16 13:48 -20.06517 139.22323 3937 ft 115 kts 343°
2026-04-16 13:48 -20.05775 139.22040 3962 ft 112 kts 342°
2026-04-16 13:48 -20.05045 139.21746 3967 ft 112 kts 341°
2026-04-16 13:49 -20.04313 139.21448 3973 ft 113 kts 341°
2026-04-16 13:49 -20.03582 139.21150 3972 ft 113 kts 341°
2026-04-16 13:49 -20.02850 139.20854 3973 ft 113 kts 341°
2026-04-16 13:49 -20.02118 139.20559 3974 ft 113 kts 341°
2026-04-16 13:50 -20.01386 139.20265 3967 ft 112 kts 342°
2026-04-16 13:50 -20.00656 139.19972 3969 ft 112 kts 342°
2026-04-16 13:50 -19.99926 139.19680 3970 ft 112 kts 342°
2026-04-16 13:50 -19.99195 139.19388 3967 ft 112 kts 341°
2026-04-16 13:51 -19.98465 139.19096 3967 ft 112 kts 342°
2026-04-16 13:51 -19.97735 139.18804 3966 ft 112 kts 342°
2026-04-16 13:51 -19.97005 139.18513 3970 ft 112 kts 342°
2026-04-16 13:51 -19.96276 139.18222 3967 ft 112 kts 342°
2026-04-16 13:52 -19.95549 139.17930 3968 ft 112 kts 343°
2026-04-16 13:52 -19.94819 139.17639 3970 ft 112 kts 343°
2026-04-16 13:52 -19.94085 139.17347 3971 ft 113 kts 343°
2026-04-16 13:52 -19.93352 139.17055 3967 ft 113 kts 343°
2026-04-16 13:53 -19.92619 139.16762 3964 ft 112 kts 342°
2026-04-16 13:53 -19.91887 139.16470 3968 ft 112 kts 343°
2026-04-16 13:53 -19.91155 139.16178 3969 ft 113 kts 343°
2026-04-16 13:53 -19.90420 139.15885 3970 ft 113 kts 343°
2026-04-16 13:54 -19.89683 139.15591 3975 ft 113 kts 342°
2026-04-16 13:54 -19.88945 139.15298 3974 ft 113 kts 343°
2026-04-16 13:54 -19.88204 139.15003 3972 ft 114 kts 342°
2026-04-16 13:54 -19.87464 139.14707 3965 ft 113 kts 342°
2026-04-16 13:55 -19.86730 139.14414 3963 ft 113 kts 343°
2026-04-16 13:55 -19.85996 139.14120 3964 ft 112 kts 343°
2026-04-16 13:55 -19.85264 139.13828 3967 ft 113 kts 343°
2026-04-16 13:55 -19.84530 139.13535 3969 ft 113 kts 343°
2026-04-16 13:56 -19.83840 139.13261 3969 ft 113 kts 343°
2026-04-16 13:56 -19.83105 139.12968 3969 ft 113 kts 343°
2026-04-16 13:56 -19.82369 139.12675 3969 ft 113 kts 343°
2026-04-16 13:56 -19.81632 139.12381 3967 ft 113 kts 343°
2026-04-16 13:57 -19.80896 139.12088 3966 ft 113 kts 342°
2026-04-16 13:57 -19.80161 139.11795 3967 ft 113 kts 343°
2026-04-16 13:57 -19.79426 139.11502 3968 ft 113 kts 343°
2026-04-16 13:58 -19.77952 139.10915 3970 ft 113 kts 343°
2026-04-16 13:58 -19.77210 139.10620 3971 ft 114 kts 343°
2026-04-16 13:58 -19.76467 139.10324 3968 ft 114 kts 343°
2026-04-16 13:58 -19.75726 139.10029 3966 ft 114 kts 343°
2026-04-16 13:59 -19.74985 139.09734 3969 ft 114 kts 343°
2026-04-16 13:59 -19.74243 139.09439 3970 ft 114 kts 342°
2026-04-16 13:59 -19.73500 139.09144 3970 ft 114 kts 342°
2026-04-16 13:59 -19.72757 139.08848 3966 ft 114 kts 342°
2026-04-16 14:00 -19.72017 139.08554 3963 ft 114 kts 343°
2026-04-16 14:00 -19.71290 139.08264 3962 ft 113 kts 343°
2026-04-16 14:00 -19.70554 139.07971 3966 ft 113 kts 342°
2026-04-16 14:00 -19.69819 139.07678 3968 ft 113 kts 343°
2026-04-16 14:01 -19.69082 139.07385 3970 ft 113 kts 342°
2026-04-16 14:01 -19.68343 139.07092 3964 ft 113 kts 342°
2026-04-16 14:01 -19.67608 139.06800 3965 ft 113 kts 343°
2026-04-16 14:01 -19.66876 139.06508 3963 ft 112 kts 343°
2026-04-16 14:02 -19.66146 139.06216 3969 ft 113 kts 343°
2026-04-16 14:02 -19.65402 139.05921 3965 ft 113 kts 342°
2026-04-16 14:02 -19.64667 139.05630 3964 ft 113 kts 343°
2026-04-16 14:02 -19.63930 139.05337 3962 ft 113 kts 343°
2026-04-16 14:03 -19.63196 139.05044 3962 ft 112 kts 343°
2026-04-16 14:03 -19.62464 139.04752 3966 ft 112 kts 343°
2026-04-16 14:03 -19.61729 139.04462 3964 ft 113 kts 344°
2026-04-16 14:03 -19.60991 139.04168 3962 ft 113 kts 343°
2026-04-16 14:04 -19.60256 139.03876 3963 ft 113 kts 343°
2026-04-16 14:04 -19.59516 139.03582 3967 ft 114 kts 343°
2026-04-16 14:04 -19.58769 139.03286 3963 ft 115 kts 343°
2026-04-16 14:04 -19.58024 139.02991 3960 ft 114 kts 343°
2026-04-16 14:05 -19.57284 139.02697 3961 ft 113 kts 344°
2026-04-16 14:05 -19.56546 139.02402 3968 ft 114 kts 343°
2026-04-16 14:05 -19.55802 139.02108 3967 ft 114 kts 343°
2026-04-16 14:05 -19.55057 139.01813 3967 ft 115 kts 343°
2026-04-16 14:06 -19.54311 139.01516 3960 ft 114 kts 343°
2026-04-16 14:06 -19.53567 139.01221 3960 ft 114 kts 343°
2026-04-16 14:06 -19.52830 139.00927 3958 ft 113 kts 343°
2026-04-16 14:06 -19.52097 139.00636 3955 ft 112 kts 343°
2026-04-16 14:07 -19.51368 139.00347 3961 ft 112 kts 343°
2026-04-16 14:07 -19.50637 139.00056 3958 ft 112 kts 343°
2026-04-16 14:07 -19.49909 138.99766 3955 ft 111 kts 343°
2026-04-16 14:07 -19.49184 138.99480 3947 ft 111 kts 343°
2026-04-16 14:08 -19.48473 138.99195 3954 ft 111 kts 343°
2026-04-16 14:08 -19.47742 138.98906 3954 ft 111 kts 343°
2026-04-16 14:08 -19.47029 138.98623 3957 ft 111 kts 343°
2026-04-16 14:08 -19.46310 138.98337 3953 ft 110 kts 343°
2026-04-16 14:09 -19.45588 138.98050 3957 ft 111 kts 344°
2026-04-16 14:09 -19.44863 138.97764 3963 ft 112 kts 343°
2026-04-16 14:09 -19.44131 138.97474 3960 ft 112 kts 343°
2026-04-16 14:09 -19.43398 138.97184 3957 ft 113 kts 343°
2026-04-16 14:10 -19.42666 138.96894 3957 ft 112 kts 343°
2026-04-16 14:10 -19.41934 138.96605 3958 ft 113 kts 343°
2026-04-16 14:10 -19.41199 138.96313 3960 ft 113 kts 344°
2026-04-16 14:10 -19.40462 138.96021 3957 ft 113 kts 343°
2026-04-16 14:11 -19.39727 138.95730 3964 ft 113 kts 343°
2026-04-16 14:11 -19.38987 138.95438 3959 ft 114 kts 343°
2026-04-16 14:11 -19.38246 138.95145 3956 ft 114 kts 343°
2026-04-16 14:11 -19.37509 138.94852 3952 ft 113 kts 343°
2026-04-16 14:12 -19.36773 138.94559 3947 ft 112 kts 343°
2026-04-16 14:12 -19.36043 138.94270 3954 ft 112 kts 343°
2026-04-16 14:12 -19.35311 138.93979 3953 ft 112 kts 344°
2026-04-16 14:12 -19.34578 138.93689 3955 ft 113 kts 344°
2026-04-16 14:13 -19.33844 138.93400 3951 ft 112 kts 343°
2026-04-16 14:13 -19.33110 138.93109 3957 ft 113 kts 344°
2026-04-16 14:13 -19.32376 138.92818 3956 ft 113 kts 343°
2026-04-16 14:13 -19.31636 138.92526 3956 ft 113 kts 343°
2026-04-16 14:14 -19.30898 138.92234 3949 ft 113 kts 343°
2026-04-16 14:14 -19.30161 138.91941 3954 ft 113 kts 343°
2026-04-16 14:14 -19.29421 138.91649 3957 ft 114 kts 344°
2026-04-16 14:14 -19.28681 138.91357 3957 ft 114 kts 344°
2026-04-16 14:15 -19.27939 138.91064 3953 ft 114 kts 344°
2026-04-16 14:15 -19.27198 138.90771 3953 ft 114 kts 344°
2026-04-16 14:15 -19.26459 138.90478 3947 ft 113 kts 344°
2026-04-16 14:15 -19.25724 138.90187 3952 ft 113 kts 344°
2026-04-16 14:16 -19.24991 138.89896 3951 ft 112 kts 344°
2026-04-16 14:16 -19.24258 138.89606 3950 ft 112 kts 343°
2026-04-16 14:16 -19.23524 138.89316 3952 ft 113 kts 344°
2026-04-16 14:16 -19.22790 138.89019 3951 ft 113 kts 343°
2026-04-16 14:17 -19.22054 138.88724 3955 ft 114 kts 343°
2026-04-16 14:17 -19.21315 138.88428 3951 ft 113 kts 343°
2026-04-16 14:17 -19.20577 138.88135 3955 ft 114 kts 343°
2026-04-16 14:17 -19.19835 138.87843 3955 ft 114 kts 344°
2026-04-16 14:18 -19.19090 138.87548 3956 ft 115 kts 343°
2026-04-16 14:18 -19.18339 138.87252 3952 ft 115 kts 344°
2026-04-16 14:18 -19.17591 138.86956 3945 ft 114 kts 343°
2026-04-16 14:18 -19.16846 138.86661 3955 ft 114 kts 344°
2026-04-16 14:19 -19.16101 138.86366 3952 ft 114 kts 344°
2026-04-16 14:19 -19.15355 138.86072 3948 ft 114 kts 344°
2026-04-16 14:19 -19.14613 138.85778 3947 ft 114 kts 344°
2026-04-16 14:19 -19.13874 138.85486 3950 ft 113 kts 344°
2026-04-16 14:20 -19.13138 138.85195 3953 ft 113 kts 345°
2026-04-16 14:20 -19.12396 138.84904 3948 ft 114 kts 344°
2026-04-16 14:20 -19.11654 138.84612 3949 ft 114 kts 345°
2026-04-16 14:20 -19.10908 138.84316 3960 ft 115 kts 344°
2026-04-16 14:21 -19.10156 138.84021 3946 ft 115 kts 344°
2026-04-16 14:21 -19.09408 138.83724 3942 ft 114 kts 344°
2026-04-16 14:21 -19.08667 138.83431 3943 ft 114 kts 344°
2026-04-16 14:21 -19.07929 138.83140 3946 ft 113 kts 344°
2026-04-16 14:22 -19.07191 138.82848 3948 ft 113 kts 343°
2026-04-16 14:22 -19.06453 138.82558 3948 ft 113 kts 344°
2026-04-16 14:22 -19.05716 138.82266 3947 ft 113 kts 344°
2026-04-16 14:22 -19.05217 138.82070 3950 ft 113 kts 344°
2026-04-16 14:23 -19.04247 138.81688 3941 ft 111 kts 343°
2026-04-16 14:23 -19.03756 138.81492 3947 ft 112 kts 344°
2026-04-16 14:23 -19.03028 138.81204 3950 ft 112 kts 344°
2026-04-16 14:23 -19.02297 138.80917 3956 ft 113 kts 344°
2026-04-16 14:24 -19.01559 138.80627 3958 ft 114 kts 344°
2026-04-16 14:24 -19.00813 138.80334 3952 ft 114 kts 344°
2026-04-16 14:24 -19.00066 138.80040 3947 ft 114 kts 344°
2026-04-16 14:24 -18.99320 138.79745 3953 ft 115 kts 344°
2026-04-16 14:25 -18.98569 138.79450 3952 ft 115 kts 345°
2026-04-16 14:25 -18.97823 138.79153 3946 ft 115 kts 344°
2026-04-16 14:25 -18.97075 138.78860 3947 ft 115 kts 344°
2026-04-16 14:25 -18.96329 138.78566 3947 ft 114 kts 344°
2026-04-16 14:26 -18.95584 138.78273 3946 ft 114 kts 344°
2026-04-16 14:26 -18.94838 138.77978 3953 ft 114 kts 344°
2026-04-16 14:26 -18.94093 138.77686 3945 ft 114 kts 344°
2026-04-16 14:26 -18.93355 138.77389 3942 ft 113 kts 344°
2026-04-16 14:27 -18.92617 138.77103 3941 ft 113 kts 344°
2026-04-16 14:27 -18.91881 138.76815 3951 ft 113 kts 344°
2026-04-16 14:27 -18.91140 138.76523 3948 ft 114 kts 344°
2026-04-16 14:27 -18.90400 138.76231 3944 ft 114 kts 344°
2026-04-16 14:28 -18.89670 138.75944 3939 ft 113 kts 344°
2026-04-16 14:28 -18.88932 138.75653 3948 ft 113 kts 344°
2026-04-16 14:28 -18.88197 138.75363 3939 ft 113 kts 344°
2026-04-16 14:28 -18.87463 138.75074 3943 ft 112 kts 344°
2026-04-16 14:29 -18.86728 138.74785 3949 ft 113 kts 344°
2026-04-16 14:29 -18.85991 138.74495 3951 ft 113 kts 344°
2026-04-16 14:29 -18.85251 138.74204 3947 ft 113 kts 344°
2026-04-16 14:29 -18.84509 138.73913 3950 ft 114 kts 344°
2026-04-16 14:30 -18.83767 138.73621 3947 ft 114 kts 345°
2026-04-16 14:30 -18.83024 138.73329 3948 ft 114 kts 344°
2026-04-16 14:30 -18.82283 138.73037 3943 ft 114 kts 345°
2026-04-16 14:30 -18.81543 138.72746 3944 ft 113 kts 344°
2026-04-16 14:31 -18.80802 138.72454 3946 ft 114 kts 345°
2026-04-16 14:31 -18.80058 138.72162 3942 ft 114 kts 344°
2026-04-16 14:31 -18.79314 138.71869 3941 ft 114 kts 345°
2026-04-16 14:31 -18.78571 138.71578 3943 ft 114 kts 345°
2026-04-16 14:32 -18.77830 138.71286 3941 ft 114 kts 345°
2026-04-16 14:32 -18.77087 138.70994 3942 ft 114 kts 345°
2026-04-16 14:32 -18.76345 138.70702 3941 ft 114 kts 345°
2026-04-16 14:32 -18.75610 138.70393 3941 ft 115 kts 336°
2026-04-16 14:33 -18.75065 138.69764 3942 ft 120 kts 301°
2026-04-16 14:33 -18.74657 138.69000 3944 ft 120 kts 304°
2026-04-16 14:33 -18.74232 138.68244 3941 ft 120 kts 304°
2026-04-16 14:33 -18.73809 138.67491 3941 ft 119 kts 304°
2026-04-16 14:34 -18.73387 138.66737 3944 ft 119 kts 304°
2026-04-16 14:34 -18.72966 138.65982 3946 ft 120 kts 304°
2026-04-16 14:34 -18.72492 138.65271 3757 ft 118 kts 323°
2026-04-16 14:34 -18.71734 138.64942 3336 ft 117 kts
2026-04-16 14:35 -18.70987 138.65156 2950 ft 110 kts 39°
2026-04-16 14:35 -18.70574 138.65810 2539 ft 107 kts 80°
2026-04-16 14:35 -18.70762 138.66529 2051 ft 112 kts 127°
2026-04-16 14:35 -18.71299 138.67150 1519 ft 114 kts 139°
2026-04-16 14:36 -18.71922 138.67630 1235 ft 105 kts 143°
2026-04-16 14:36 -18.72469 138.68055 991 ft 92 kts 139°
2026-04-16 14:36 -18.72909 138.68447 878 ft 80 kts 140°
2026-04-16 14:36 -18.73344 138.68808 830 ft 78 kts 144°
2026-04-16 14:37 -18.73780 138.69178 746 ft 81 kts 139°
2026-04-16 14:37 -18.74209 138.69550 670 ft 77 kts 143°
2026-04-16 14:37 -18.74637 138.69882 575 ft 77 kts 141°
2026-04-16 14:37 -18.75053 138.70237 519 ft 77 kts 143°
2026-04-16 14:38 -18.75447 138.70562 408 ft 59 kts 141°
2026-04-16 14:38 -18.75693 138.70771 411 ft 35 kts 141°
2026-04-16 14:38 -18.75776 138.70833 410 ft 7 kts 311°
2026-04-16 14:38 -18.75730 138.70794 411 ft 8 kts 313°
2026-04-16 14:39 -18.75687 138.70753 411 ft 11 kts 323°
2026-04-16 14:39 -18.75602 138.70688 409 ft 18 kts 323°
2026-04-16 14:39 -18.75530 138.70625 409 ft 16 kts 323°
2026-04-16 14:39 -18.75516 138.70543 409 ft 11 kts 247°
2026-04-16 14:40 -18.75555 138.70490 408 ft 7 kts 174°
2026-04-16 14:40 -18.75567 138.70509 408 ft 0 kts 101°
2026-04-16 14:40 -18.75566 138.70514 408 ft 0 kts 71°